Date,TemperatureHighF,TemperatureAvgF,TemperatureLowF,DewpointHighF,DewpointAvgF,DewpointLowF,HumidityHigh,HumidityAvg,HumidityLow,PressureMaxIn,PressureMinIn,WindSpeedMaxMPH,WindSpeedAvgMPH,GustSpeedMaxMPH,PrecipitationSumIn
2013-9-1,94,81,74,80,75,72,96,84,53,29.96,29.86,12,1,12,0.14
2013-9-2,94,80,73,81,75,72,97,87,57,29.98,29.87,14,1,14,0.79
2013-9-3,94,82,74,81,76,73,98,84,59,29.98,29.87,6,0,0,0.01
2013-9-4,91,82,75,80,76,71,97,83,67,30.07,29.96,11,1,0,0.00
2013-9-5,94,81,75,80,77,73,96,86,61,30.08,29.99,7,0,0,0.00
2013-9-6,90,80,74,81,76,73,97,88,69,30.05,29.97,7,0,0,0.00
2013-9-7,88,81,73,76,74,72,97,81,63,30.03,29.94,13,1,13,0.00
2013-9-8,89,81,73,74,72,69,93,74,58,29.98,29.91,9,1,0,0.00
2013-9-9,89,80,71,76,72,70,97,78,61,30.06,29.94,10,1,0,0.00
2013-9-10,89,83,79,76,73,71,84,72,61,30.14,30.03,14,2,14,0.00
2013-9-11,89,82,75,80,75,71,91,81,67,30.12,30.03,11,1,0,0.12
2013-9-12,89,80,74,78,75,72,97,85,61,30.04,29.89,11,0,0,0.21
2013-9-13,94,82,73,76,74,70,97,79,47,29.90,29.76,8,0,0,0.00
2013-9-14,90,82,74,79,76,72,94,83,65,29.99,29.80,8,0,0,0.00
2013-9-15,90,81,74,82,76,72,98,86,70,30.08,29.97,10,1,0,0.49
2013-9-16,89,82,74,80,77,73,97,83,70,30.08,30.00,8,1,0,0.00
2013-9-17,86,80,75,78,76,72,96,86,73,30.10,29.99,15,2,15,0.21
2013-9-18,84,78,75,75,73,70,95,84,74,30.10,30.01,17,3,17,0.33
2013-9-19,86,80,76,76,72,69,93,79,67,30.08,30.01,11,1,0,0.05
2013-9-20,86,78,71,75,71,69,96,81,65,30.05,29.92,11,1,0,0.03
2013-9-21,87,78,69,75,72,68,97,82,65,29.94,29.74,9,1,0,0.00
2013-9-22,84,77,74,77,73,71,95,88,76,29.83,29.72,9,1,0,0.12
2013-9-23,82,77,72,76,74,71,97,90,78,29.95,29.82,6,0,0,0.22
2013-9-24,79,76,73,77,74,72,98,96,90,29.94,29.79,7,0,0,1.01
2013-9-25,84,77,75,77,75,74,98,92,78,29.80,29.73,4,0,12,0.00
2013-9-26,76,75,74,75,74,74,98,97,97,29.77,29.72,2,0,0,0.00
2013-9-27,80,76,69,73,71,67,96,84,77,29.99,29.93,21,5,21,0.26
2013-9-28,79,75,72,72,70,68,96,84,75,30.06,29.95,12,4,20,0.19
2013-9-29,81,76,71,73,70,68,95,82,73,30.01,29.95,17,3,17,0.23
2013-9-30,81,76,73,70,67,64,86,75,61,30.03,29.93,13,1,13,0.00